Regional Weather Roundup
Issued by NWS

Home | Current Version | Previous Version | Graphics & Text | Print | Product List | Glossary On
Versions: 1 2 3 4 5 6 7 8 9 10 11 12 13 14 15 16 17 18 19 20 21 22 23 24 25 26 27 28 29 30 31 32 33 34 35 36 37 38 39 40 41 42 43 44 45 46 47 48 49 50
000
ASUS43 KLOT 261603
RWRIL

ILLINOIS REGIONAL WEATHER ROUNDUP
NATIONAL WEATHER SERVICE CHICAGO/ROMEOVILLE IL
1100 AM CDT THU MAY 26 2016

NOTE: "FAIR" INDICATES FEW OR NO CLOUDS BELOW 12,000 FEET WITH NO
SIGNIFICANT WEATHER AND/OR OBSTRUCTIONS TO VISIBILITY.

* THESE STATIONS ARE NOT UNDER NWS QUALITY CONTROL. THEY ALSO MAY NOT
  REPORT WEATHER SUCH AS PRECIPITATION OR FOG.

ILZ001-002-007-009-015-016-024-261700-
NORTHWEST ILLINOIS

CITY           SKY/WX    TMP DP  RH WIND       PRES   REMARKS
MOLINE         PTSUNNY   79  65  62 S10       29.90F HX  81
STERLING*      PTSUNNY   75  63  66 SW7       29.91F
$$

ILZ003-004-008-010-011-017-018-261700-
NORTH CENTRAL ILLINOIS

CITY           SKY/WX    TMP DP  RH WIND       PRES   REMARKS
ROCKFORD       CLOUDY    73  62  68 SW5       29.92F
FREEPORT*      PTSUNNY   72  62  70 W7        29.92F
ROCHELLE*      PTSUNNY   74  64  70 SW7       29.92S
$$

ILZ005-006-012>014-019>023-261700-
NORTHEAST ILLINOIS

CITY           SKY/WX    TMP DP  RH WIND       PRES   REMARKS
CHICAGO-OHARE  CLOUDY    75  64  68 SW9       29.93R
CHICAGO-MIDWAY CLOUDY    74  64  71 S13       29.92R
AURORA         CLOUDY    73  65  75 S9        29.94R
LANSING*       LGT RAIN  71  64  78 S15G21    29.97R
WAUKEGAN       CLOUDY    74  67  78 S7        29.90R
DUPAGE AIRPORT CLOUDY    73  64  73 S13       29.93R
WHEELING       CLOUDY    76  64  66 S9        29.93R
NORTHERLY ISL    N/A     74  62  66 S12         N/A
NORTHERLY ISL    N/A     74  62  66 S12         N/A
$$

LMZ740>746-261700-
SOUTHERN LAKE MICHIGAN

STATION/POSITION SKY/WX   TEMP    WIND        PRES    VSBY  WAVE
                          AIR SEA DIR/SP/G                  HT/PER
                          (F)     (DEG/KT/KT) (MB)    (MI)  (FT/S)
SOUTHERN BUOY              53 49  180/  8/ 10 1012.9          1/ 3
WILMETTE HARBOR            64 56  150/  4/  8   N/A           1
HARRISON CRIB              74     210/ 10/ 11   N/A
BURNHAM HARBOR             74     170/  9/ 11   N/A
CALUMET HARBOR             73     200/  7/ 11 1012.6F
BURNS HARBOR               72     200/ 10/ 13 1014.2S
MICHIGAN CITY              73     190/ 13/ 15   N/A
MICHIGAN CITY 6N           64 58  220/  6/  8   N/A           1
ST. JOSEPH                 64 60  210/  4/  6   N/A           1
$$

ILZ025>027-034>036-040-047-049-050-058-095>099-261700-
WEST-CENTRAL ILLINOIS

CITY           SKY/WX    TMP DP  RH WIND       PRES   REMARKS
QUINCY         CLOUDY    74  66  76 SE10      29.92F
MACOMB*        MOSUNNY   74  66  77 S14       29.95F
PITTSFIELD*    MOSUNNY   76  68  78 SE9       29.93F
$$

ILZ028>032-037-038-041>044-048-051>054-059>061-261700-
CENTRAL ILLINOIS

CITY           SKY/WX    TMP DP  RH WIND       PRES   REMARKS
BLOOMINGTON    CLOUDY    68  65  90 S13       29.95F
DECATUR        CLOUDY    68  64  87 SE14      29.95F
PEORIA         CLOUDY    70  64  81 S8        29.94F
SPRINGFIELD    PTSUNNY   72  65  78 SE14      29.93F
TAYLORVILLE    NOT AVBL
$$

ILZ033-039-045-046-055>057-062-063-261700-
EAST-CENTRAL ILLINOIS

CITY           SKY/WX    TMP DP  RH WIND       PRES   REMARKS
CHAMPAIGN      LGT RAIN  65  63  93 S23       29.96F
MATTOON        LGT RAIN  65  62  90 SE13      29.97F
$$

ILZ079-100>102-261700-
SOUTHWEST ILLINOIS

CITY           SKY/WX    TMP DP  RH WIND       PRES   REMARKS
BELLEVILLE     CLOUDY    68  68 100 VRB5      29.98R
CAHOKIA*       PTSUNNY   70  65  84 S14       29.98R
SPARTA*        LGT RAIN  66  64  94 SE10      30.02F
$$

ILZ064>066-069>071-074>076-080>082-084>086-088>090-092>094-261700-
SOUTH-CENTRAL ILLINOIS

CITY           SKY/WX    TMP DP  RH WIND       PRES   REMARKS
CARBONDALE     TSTM      66  64  93 S8        30.05F FOG
MT. VERNON     CLOUDY    66  61  82 NE8G16    30.02F
SALEM*         LGT RAIN  67  64  90 E10       29.97F
$$

ILZ067-068-072-073-078-083-087-091-261700-
SOUTHEAST ILLINOIS

CITY           SKY/WX    TMP DP  RH WIND       PRES   REMARKS
LAWRENCEVILLE  LGT RAIN  67  32  27 N8        30.10R
FLORA*         RAIN      67  65  93 N5        30.05F
HARRISBURG*    TSTM      66  65  99 N7        30.07F
ROBINSON*      TSTM      64  62  93 NW5       30.11R
$$

ABBREVIATIONS USED IN REMARKS
   TC - TEMPERATURE IN CELSIUS
  WCI - WIND CHILL INDEX
   HX - HEAT INDEX
  VSB - VISIBILITY
$$




USA.gov is the U.S. government's official web portal to all federal, state and local government web resources and services.